Starlink 30372

operational
NORAD ID: 57789 Int'l Des: 2023-134 Owner: SPXS Country: US Constellation: starlink
LEOCIRCULAR

Starlink 30372について

説明を読み込み中...

リアルタイム位置

3D地球を読み込み中...

次回通過

高度履歴

Altitude vs Time

uPlot chart will show altitude changes over time

軌道要素

1 57789U 23134U 25259.53481285 -.00000023 00000-0 86727-5 0 9999
2 57789 43.0044 341.9111 0000726 276.5762 83.5007 15.27579597114234
Epoch: Sep 16, 2025 • Age: 39 hours

現在のステータス

高度 492.0 km
速度 7.62 km/s
衛星直下点 -33.65°S, 127.28°W
打ち上げ日 Sep 4, 2023
運用期間 2 years
タイプ internet

技術仕様

分類 Payload
質量 730.00 kg
乾燥質量 700.00 kg
総質量 730.00 kg
長さ 0.30 m
直径 4.10 m
スパン 29.00 m
形状 Box + pan
製造者 SPXS
バスタイプ Starlink V2M
フェーズステータス In Orbit
所有者/国 SPXS/US

大規模コンステレーション

Loading constellations...